Weather History for Statesville, NC

Change the Weather History Date:

Tuesday, November 19, 2013

  Actual Average (KHKY) Record (KHKY)
Temperature  
Mean Temperature 44 °F -  
Max Temperature 52 °F 60 °F 74 °F (1963)
Min Temperature 37 °F 39 °F 19 °F (1951)
Degree Days  
Heating Degree Days 20    
Moisture  
Dew Point 24 °F    
Average Humidity 43    
Maximum Humidity 65    
Minimum Humidity 31    
Precipitation  
Precipitation 0.00 in - - ()
Sea Level Pressure  
Sea Level Pressure 30.14 in    
Wind  
Wind Speed 7 mph (NNE)    
Max Wind Speed 13 mph    
Max Gust Speed 17 mph    
Visibility 10 miles    
Events      
Averages and records for this station are not official NWS values.
T = Trace of Precipitation, MM = Missing Value Source: NWS Daily Summary

Daily Weather History Graph

Daily Weather History Graph

Search for Another Location

Airport:

Trip Planner

Search our weather history database for the weather conditions in past years. The results will help you decide how hot, cold, wet, or windy it might be!

Date:

Astronomy

Nov. 19, 2013 Rise Set
Actual Time 7:04 AM EST 5:14 PM EST
Civil Twilight 6:36 AM EST 5:41 PM EST
Nautical Twilight 6:05 AM EST 6:12 PM EST
Astronomical Twilight 5:35 AM EST 6:43 PM EST
Moon 7:04 PM EST (11/19) 8:41 AM EST (11/19)
Length of Visible Light 11h 05m
Length of Day
10h 10m
Waning Gibbous, 96% of the Moon is Illuminated
Nov 19
Waning Gibbous
Nov 25
Last Quarter
Dec 2
New
Dec 9
First Quarter
Dec 17
Full

Hourly Weather History & Observations

Time (EST) Temp. Windchill Dew Point Humidity Pressure Visibility Wind Dir Wind Speed Gust Speed Precip Events Conditions
12:15 AM 49.1 °F - 26.8 °F 42% 30.02 in 10.0 mi NW 12.7 mph 17.3 mph N/A   Clear
12:35 AM 49.1 °F - 26.2 °F 41% 30.02 in 10.0 mi NNW 10.4 mph 17.3 mph N/A   Clear
12:55 AM 48.2 °F - 26.2 °F 42% 30.01 in 10.0 mi NNW 8.1 mph - N/A   Clear
1:15 AM 47.5 °F - 26.1 °F 43% 30.01 in 10.0 mi North 5.8 mph - N/A   Clear
1:35 AM 46.6 °F - 25.7 °F 44% 30.02 in 10.0 mi NNW 4.6 mph - N/A   Clear
1:55 AM 46.0 °F 43.1 °F 25.5 °F 45% 30.02 in 10.0 mi North 5.8 mph - N/A   Clear
2:15 AM 46.4 °F 42.4 °F 25.2 °F 43% 30.01 in 10.0 mi North 8.1 mph - N/A   Clear
2:35 AM 45.9 °F 43.6 °F 25.3 °F 45% 30.02 in 10.0 mi NNE 4.6 mph - N/A   Clear
2:55 AM 45.3 °F 41.6 °F 25.3 °F 46% 30.02 in 10.0 mi North 6.9 mph - N/A   Clear
3:15 AM 45.5 °F 42.5 °F 24.8 °F 44% 30.02 in 10.0 mi North 5.8 mph - N/A   Clear
3:35 AM 44.8 °F 41.0 °F 25.0 °F 46% 30.03 in 10.0 mi North 6.9 mph - N/A   Clear
3:55 AM 45.0 °F 40.6 °F 24.8 °F 45% 30.03 in 10.0 mi North 8.1 mph - N/A   Clear
4:15 AM 45.0 °F 40.6 °F 24.4 °F 45% 30.03 in 10.0 mi North 8.1 mph - N/A   Clear
4:35 AM 44.4 °F 40.0 °F 24.3 °F 45% 30.04 in 10.0 mi North 8.1 mph - N/A   Clear
4:55 AM 43.7 °F 39.1 °F 24.4 °F 47% 30.04 in 10.0 mi North 8.1 mph - N/A   Clear
5:15 AM 43.7 °F 39.7 °F 24.4 °F 47% 30.05 in 10.0 mi North 6.9 mph - N/A   Clear
5:35 AM 43.5 °F 39.4 °F 23.9 °F 46% 30.06 in 10.0 mi North 6.9 mph - N/A   Clear
5:55 AM 43.5 °F 39.4 °F 23.0 °F 44% 30.07 in 10.0 mi North 6.9 mph - N/A   Clear
6:15 AM 42.1 °F 38.4 °F 23.4 °F 48% 30.08 in 10.0 mi North 5.8 mph - N/A   Clear
6:35 AM 39.9 °F 36.7 °F 24.1 °F 53% 30.09 in 10.0 mi East 4.6 mph - N/A   Clear
6:55 AM 41.0 °F 39.0 °F 23.9 °F 51% 30.10 in 10.0 mi NE 3.5 mph - N/A   Clear
7:15 AM 40.3 °F 38.2 °F 24.3 °F 53% 30.11 in 10.0 mi North 3.5 mph - N/A   Clear
7:35 AM 38.3 °F 34.8 °F 25.2 °F 59% 30.12 in 10.0 mi ENE 4.6 mph - N/A   Clear
7:55 AM 37.0 °F 34.5 °F 26.4 °F 65% 30.13 in 10.0 mi East 3.5 mph - N/A   Clear
8:15 AM 41.0 °F 37.1 °F 27.0 °F 57% 30.14 in 10.0 mi NE 5.8 mph - N/A   Clear
8:35 AM 42.8 °F 38.6 °F 25.9 °F 51% 30.15 in 10.0 mi NE 6.9 mph - N/A   Clear
8:55 AM 43.7 °F 38.6 °F 25.0 °F 48% 30.16 in 10.0 mi NE 9.2 mph - N/A   Clear
9:15 AM 45.0 °F 40.1 °F 25.0 °F 46% 30.17 in 10.0 mi NE 9.2 mph - N/A   Clear
9:35 AM 45.5 °F 39.6 °F 24.8 °F 44% 30.18 in 10.0 mi NNE 12.7 mph - N/A   Clear
9:55 AM 46.8 °F - 24.3 °F 41% 30.18 in 10.0 mi North 9.2 mph 17.3 mph N/A   Clear
10:15 AM 47.5 °F - 25.0 °F 41% 30.20 in 10.0 mi NNE 8.1 mph - N/A   Clear
10:35 AM 47.8 °F - 24.6 °F 40% 30.20 in 10.0 mi ENE 4.6 mph - N/A   Clear
10:55 AM 48.7 °F - 24.1 °F 38% 30.19 in 10.0 mi NE 11.5 mph - N/A   Clear
11:15 AM 48.9 °F - 23.9 °F 38% 30.19 in 10.0 mi NNE 10.4 mph - N/A   Clear
11:35 AM 49.3 °F - 24.1 °F 37% 30.19 in 10.0 mi NNE 8.1 mph - N/A   Clear
11:55 AM 48.9 °F - 24.1 °F 38% 30.18 in 10.0 mi North 3.5 mph - N/A   Clear
12:15 PM 49.3 °F - 24.1 °F 37% 30.18 in 10.0 mi ENE 8.1 mph - N/A   Clear
12:35 PM 51.6 °F - 25.2 °F 36% 30.17 in 10.0 mi NE 5.8 mph - N/A   Clear
12:55 PM 51.3 °F - 24.3 °F 35% 30.16 in 10.0 mi NNE 5.8 mph - N/A   Clear
1:15 PM 51.3 °F - 23.4 °F 34% 30.15 in 10.0 mi NNE 5.8 mph - N/A   Clear
1:35 PM 52.5 °F - 23.5 °F 32% 30.14 in 10.0 mi NE 12.7 mph 16.1 mph N/A   Clear
1:55 PM 52.7 °F - 23.0 °F 31% 30.14 in 10.0 mi North 9.2 mph - N/A   Clear
2:15 PM 52.5 °F - 22.6 °F 31% 30.14 in 10.0 mi NNE 8.1 mph - N/A   Clear
2:35 PM 52.9 °F - 22.6 °F 31% 30.14 in 10.0 mi NNE 8.1 mph - N/A   Clear
2:55 PM 52.7 °F - 22.5 °F 31% 30.14 in 10.0 mi NNW 9.2 mph - N/A   Clear
3:15 PM 52.7 °F - 22.5 °F 31% 30.14 in 10.0 mi North 9.2 mph - N/A   Clear
3:35 PM 52.5 °F - 22.5 °F 31% 30.14 in 10.0 mi NE 8.1 mph - N/A   Clear
3:55 PM 51.4 °F - 22.6 °F 32% 30.14 in 10.0 mi NNE 5.8 mph - N/A   Clear
4:15 PM 51.6 °F - 21.9 °F 31% 30.15 in 10.0 mi Calm Calm - N/A   Clear
4:35 PM 51.1 °F - 22.5 °F 33% 30.15 in 10.0 mi Calm Calm - N/A   Clear
4:55 PM 50.9 °F - 22.3 °F 33% 30.15 in 10.0 mi NE 3.5 mph - N/A   Clear
5:15 PM 50.0 °F - 21.6 °F 33% 30.15 in 10.0 mi Calm Calm - N/A   Clear
5:35 PM 48.6 °F - 21.7 °F 35% 30.16 in 10.0 mi Calm Calm - N/A   Clear
5:55 PM 47.7 °F - 21.7 °F 36% 30.17 in 10.0 mi Calm Calm - N/A   Clear
6:15 PM 47.1 °F - 22.1 °F 37% 30.17 in 10.0 mi NNE 3.5 mph - N/A   Clear
6:35 PM 45.0 °F 42.6 °F 23.9 °F 44% 30.16 in 10.0 mi North 4.6 mph - N/A   Clear
6:55 PM 44.4 °F 42.0 °F 23.5 °F 44% 30.18 in 10.0 mi NE 4.6 mph - N/A   Clear
7:15 PM 43.7 °F 41.1 °F 24.3 °F 46% 30.18 in 10.0 mi NNE 4.6 mph - N/A   Clear
7:35 PM 45.0 °F 41.8 °F 24.3 °F 44% 30.19 in 10.0 mi NNE 5.8 mph - N/A   Clear
7:55 PM 44.2 °F 41.8 °F 24.3 °F 45% 30.20 in 10.0 mi NNE 4.6 mph - N/A   Clear
8:15 PM 43.7 °F 40.3 °F 25.0 °F 48% 30.20 in 10.0 mi NE 5.8 mph - N/A   Clear
8:35 PM 44.6 °F 40.7 °F 25.3 °F 47% 30.19 in 10.0 mi ENE 6.9 mph - N/A   Clear
8:55 PM 44.2 °F 41.0 °F 25.0 °F 47% 30.22 in 10.0 mi ENE 5.8 mph - N/A   Clear
9:15 PM 44.1 °F 42.5 °F 25.2 °F 47% 30.24 in 10.0 mi NE 3.5 mph - N/A   Clear
9:35 PM 43.9 °F 41.3 °F 25.5 °F 48% 30.25 in 10.0 mi NE 4.6 mph - N/A   Clear
9:55 PM 43.2 °F 41.5 °F 25.7 °F 50% 30.25 in 10.0 mi NNE 3.5 mph - N/A   Clear
10:15 PM 42.8 °F 40.1 °F 26.6 °F 53% 30.26 in 10.0 mi NE 4.6 mph - N/A   Clear
10:35 PM 43.0 °F 39.5 °F 26.6 °F 52% 30.25 in 10.0 mi NE 5.8 mph - N/A   Clear
10:55 PM 43.3 °F 39.2 °F 26.4 °F 51% 30.26 in 10.0 mi NE 6.9 mph - N/A   Clear
11:15 PM 42.6 °F 40.9 °F 25.9 °F 52% 30.27 in 10.0 mi NE 3.5 mph - N/A   Clear
11:35 PM 41.9 °F 40.0 °F 25.9 °F 53% 30.27 in 10.0 mi NNE 3.5 mph - N/A   Clear
11:55 PM 42.1 °F - 26.1 °F 53% 30.28 in 10.0 mi Calm Calm - N/A   Clear